テナグラ彗星

P/2012 TK8 ( Tenagra )

English version
Home page
Updated on June 11, 2016

---------------------------------------------------------------------

・ プロフィール

発見日 2012年10月6日
発見光度 19.7等
発見者 Michael Schwartz (Nogales, AZ, U.S.A.), P. R. Holvorcem (Tenagra II Observatory)

・ 写真集

・ 軌道要素

Epoch 2013 May 28.0 TT = JDT 2456440.5
T 2013 May 10.58194 TT                                  MPC
q   3.0909816            (2000.0)            P               Q
n   0.11495603     Peri.  128.20882     +0.52645866     -0.84391125
a   4.1890436      Node   289.72359     +0.74175356     +0.51524341
e   0.2621271      Incl.    6.29553     +0.41550324     +0.14945913
P   8.57
From 62 observations 2012 Oct. 6-2014 Apr. 2, mean residual 0".4.

・ 光度変化

        m1 = 12.5 + 5 logΔ + 10.0 log r

---------------------------------------------------------------------

軌道要素はM.P.E.C. 2014-G32に掲載されたものです。
光度グラフはComet for Windowsで作成したものです。

---------------------------------------------------------------------

Copyright(C) Seiichi Yoshida (comet@aerith.net). All rights reserved.